Location: Cahoon Acres
(40.8736°N, 111.8994°W)
Time: 21:44:00
(UTC+00:00)

Vanguard 1 - All Passes

Search period start: 25 May 2020 00:00
Search period end: 04 June 2020 00:00
Orbit: 649 x 3834 km, 34.3° (Epoch: 23 May)

Date Brightness Start Highest point End Pass type
(mag) Time Alt. Az. Time Alt. Az. Time Alt. Az.
25 May - 12:19:21 10° SSW 12:35:16 36° SE 12:54:55 10° E daylight
25 May - 14:38:47 10° SW 14:59:44 64° SSE 15:21:25 10° E daylight
25 May - 17:02:58 10° W 17:26:31 72° S 17:44:49 10° ESE daylight
25 May - 19:30:08 10° W 19:51:32 53° SSW 20:05:17 10° SE daylight
25 May - 22:00:36 10° W 22:12:22 21° SW 22:20:50 10° S daylight
26 May - 10:26:55 10° SSE 10:34:33 14° ESE 10:43:22 10° E visible
26 May - 12:39:02 10° SSW 12:55:50 44° SE 13:16:50 10° E daylight
26 May - 14:59:37 10° WSW 15:21:03 68° SSE 15:42:42 10° E daylight
26 May - 17:24:23 10° W 17:47:53 70° S 18:05:44 10° ESE daylight
26 May - 19:51:52 10° W 20:12:13 46° SW 20:25:30 10° SSE daylight
26 May - 22:24:39 10° W 22:32:19 14° WSW 22:38:31 10° SSW daylight
27 May - 10:43:46 10° SSE 10:54:35 21° SE 11:08:09 10° E visible
27 May - 12:59:05 10° SW 13:16:35 51° SSE 13:38:31 10° E daylight
27 May - 15:20:36 10° WSW 15:42:27 71° S 16:03:56 10° E daylight
27 May - 17:45:50 10° W 18:09:10 67° SSW 18:26:33 10° ESE daylight
27 May - 20:13:46 10° W 20:32:43 39° SW 20:45:26 10° SSE daylight
28 May - 11:02:13 10° S 11:14:43 27° SE 11:31:19 10° E visible
28 May - 13:19:25 10° SW 13:37:29 58° SSE 14:00:03 10° E daylight
28 May - 15:41:43 10° WSW 16:03:53 73° S 16:25:07 10° E daylight
28 May - 18:07:19 10° W 18:30:18 61° SSW 18:47:13 10° SE daylight
28 May - 20:35:57 10° W 20:53:02 31° SW 21:04:57 10° S daylight
29 May - 11:21:25 10° SSW 11:34:59 35° SE 11:53:45 10° E visible
29 May - 13:39:58 10° SW 13:58:34 64° SSE 14:21:31 10° E daylight
29 May - 16:02:56 10° W 16:25:21 73° S 16:46:14 10° ESE daylight
29 May - 18:28:52 10° W 18:51:17 55° SSW 19:07:41 10° SE daylight
29 May - 20:58:37 10° W 21:13:11 24° SW 21:23:57 10° S daylight
30 May - 09:30:32 10° SE 09:35:11 12° ESE 09:40:27 10° ESE visible
30 May - 11:41:05 10° SSW 11:55:25 42° SE 12:15:46 10° E daylight
30 May - 14:00:44 10° WSW 14:19:49 68° SSE 14:42:55 10° E daylight
30 May - 16:24:12 10° W 16:46:47 71° S 17:07:15 10° ESE daylight
30 May - 18:50:30 10° W 19:12:05 48° SW 19:27:55 10° SE daylight
30 May - 21:22:16 10° W 21:33:14 17° SW 21:41:58 10° SSW daylight
31 May - 09:46:37 10° SSE 09:55:07 18° SE 10:06:08 10° E visible
31 May - 12:01:07 10° SW 12:16:01 50° SSE 12:37:33 10° E daylight
31 May - 14:21:37 10° WSW 14:41:10 71° S 15:04:17 10° E daylight
31 May - 16:45:31 10° W 17:08:08 67° SSW 17:28:09 10° ESE daylight
31 May - 19:12:18 10° W 19:32:41 41° SW 19:47:51 10° SSE daylight
31 May - 21:49:03 10° WSW 21:53:10 11° WSW 21:56:57 10° SW daylight
01 Jun - 10:04:56 10° S 10:15:08 25° SE 10:29:30 10° E visible
01 Jun - 12:21:24 10° SW 12:36:50 57° SSE 12:59:12 10° E daylight
01 Jun - 14:42:37 10° WSW 15:02:35 73° S 15:25:35 10° E daylight
01 Jun - 17:06:52 10° W 17:29:21 62° SSW 17:48:52 10° SE daylight
01 Jun - 19:34:23 10° W 19:53:07 33° SW 20:07:24 10° SSE daylight
02 Jun - 10:24:06 10° SSW 10:35:18 32° SE 10:52:02 10° E visible
02 Jun - 12:41:55 10° SW 12:57:48 63° SSE 13:20:46 10° E daylight
02 Jun - 15:03:43 10° W 15:24:02 72° S 15:46:49 10° ESE daylight
02 Jun - 17:28:18 10° W 17:50:26 56° SSW 18:09:23 10° SE daylight
02 Jun - 19:56:56 10° W 20:13:23 26° SW 20:26:25 10° S daylight
03 Jun - 10:43:45 10° SSW 10:55:37 40° SE 11:14:08 10° E visible
03 Jun - 13:02:36 10° WSW 13:18:57 67° SSE 13:42:18 10° E daylight
03 Jun - 15:24:51 10° W 15:45:29 70° S 16:07:57 10° ESE daylight
03 Jun - 17:49:49 10° W 18:11:20 49° SSW 18:29:38 10° SE daylight
03 Jun - 20:20:19 10° W 20:33:33 19° SW 20:44:32 10° SSW daylight
